sat.trackr.live / text

‹ back to catalog

STARLINK-35823

NORAD 66360 · 2025-254N

PAYLOAD ACTIVE UNKNOWN

§ Identity

Operator
Country
US
Launch date
2025-11-06
Launch site
AFWTR
Launch vehicle
Mass (kg)
RCS (m²)

Purposes: comms

External: N2YO · Heavens-Above · Gunter

§ Orbital elements

Epoch: 2026-05-24T16:11:53.008512Z

Period
94.11 min
Inclination
53.1585°
Eccentricity
0.0001399
Mean motion
15.30183422 rev/d
Perigee alt
474.3 km
Apogee alt
476.2 km
Semi-major
6,853.4 km
B*
4.8922e-4
RAAN
239.2007°
Arg perigee
87.4013°
Mean anomaly
272.7148°
Rev number
3,061

§ Raw data

STARLINK-358231 66360U 25254N   26144.67491908  .00014150  00000+0  48922-3 0  99982 66360  53.1585 239.2007 0001399  87.4013 272.7148 15.30183422 30618

JSON: /api/v1/satellites/66360 · /tle

For live sub-satellite position, see the globe view (requires WebGL).

§ Visibility from observer

Set your observer location to see the next 7 days of passes ≥ 10°. The values pass through the URL so the page stays shareable.

No JS? Fill the form by hand. The geolocation button needs JavaScript.